Flag for Germany Weather past 2 weeks in Apolda, Thuringia, Germany

Now
33 °F

Overcast.


Feels Like: 33 °F
Forecast: 30 / 37 °F
Wind: 2 mph from Southwest

Location: Erfurt-Bindersleben

Current Time: Feb 1, 2015 at 2:21:43 PM

Latest Report: Feb 1, 2015 at 2:00 PM


Visibility: 11 mi

Pressure: 29.26 "Hg

Humidity: 87%

Dew point: 29 °F

Location of ApoldaLocation

Historic Weather in Apolda — Graph

°F

Apolda temperature yesterday

Maximum temperature yesterday: 34 °F (at 2:00 PM)
Minimum temperature yesterday: 27 °F (at 2:00 AM)
Average temperature yesterday: 31 °F

Past Weeks' High & Low Weather Summary

 TemperatureHumidityPressure
High39 °F (Jan 17, 1:00 PM)100% (Jan 22, 11:00 AM)30.38 "Hg (Jan 22, 11:00 AM)
Low20 °F (Jan 24, 9:00 AM)68% (Jan 18, 2:00 PM)28.70 "Hg (Jan 30, 3:00 AM)
Average31 °F92%29.82 "Hg
* Reported Jan 17 1:00 PM — Feb 1 1:00 PM, Apolda, Weather by CustomWeather, © 2014

Note: Actual official high and low records may vary slightly from our data, if they occured in-between our weather recording intervals... More about our weather records

Advertising

Apolda weather history for previous 24 hours

 ConditionsComfort  
Time TempWeatherWind HumidityBarometerVisibility
1:00 PM
Feb 1
31 °FPartly sunny.3 mph92%29.26 "Hg14 mi
12:00 PM30 °FSnow flurries. Partly sunny.1 mph91%29.26 "Hg11 mi
11:00 AM29 °FLight snow. Partly sunny.1 mph90%29.26 "Hg5 mi
10:00 AM27 °FPartly sunny.2 mph92%29.23 "Hg16 mi
9:00 AM26 °FSnow flurries. Partly sunny.2 mph94%29.23 "Hg19 mi
8:00 AM25 °FScattered clouds.1 mph96%29.21 "Hg22 mi
7:00 AM25 °FPassing clouds.2 mph94%29.21 "Hg19 mi
6:00 AM25 °FPassing clouds.5 mph92%29.18 "Hg19 mi
5:00 AM26 °FOvercast.5 mph93%29.18 "Hg22 mi
4:00 AM25 °FPassing clouds.5 mph94%29.18 "Hg25 mi
3:00 AM26 °FPassing clouds.5 mph93%29.18 "Hg25 mi
2:00 AM26 °FPassing clouds.5 mph92%29.18 "Hg22 mi
1:00 AM26 °FPassing clouds.5 mph92%29.15 "Hg25 mi
12:00 AM27 °FPassing clouds.5 mph90%29.15 "Hg25 mi
11:00 PM
Jan 31
27 °FPassing clouds.5 mph90%29.15 "Hg22 mi
10:00 PM29 °FPassing clouds.6 mph87%29.15 "Hg22 mi
9:00 PM30 °FPassing clouds.6 mph86%29.12 "Hg22 mi
8:00 PM31 °FOvercast.6 mph86%29.12 "Hg22 mi
7:00 PM32 °FOvercast.5 mph86%29.09 "Hg22 mi
6:00 PM31 °FOvercast.3 mph85%29.09 "Hg22 mi
5:00 PM33 °FOvercast.6 mph83%29.06 "Hg22 mi
4:00 PM34 °FOvercast.6 mph84%29.03 "Hg22 mi
3:00 PM34 °FOvercast.6 mph82%29.03 "Hg19 mi
2:00 PM34 °FOvercast.10 mph82%29.00 "Hg19 mi
Weather by CustomWeather, © 2014

See weather overviewHow to use our weather pages